CINOVEC Weather Reports


Display with metric or nautical units.
time (UTC)temp
F
wind
direction
speed
MPH
gust
MPH
rain 1hr
in
rain 24hr
in
rain mn
in
humidity
%
barometer
mb
20260508101929 41 360 6.0 0.0 0.00 0.00 0.00 99
20260508091728 41 340 3.0 0.0 0.00 0.00 0.00 99
20260508081728 41 330 6.0 0.0 0.00 0.00 0.00 99
20260508071830 39 340 8.0 0.0 0.00 0.00 0.00 99
20260508061730 39 350 6.0 0.0 0.00 0.00 0.00 99
20260508051728 39 350 7.0 0.0 0.00 0.00 0.00 99
20260508041929 39 340 7.0 0.0 0.00 0.00 0.00 99
20260508031728 39 340 7.0 0.0 0.00 0.00 0.00 99
20260508021729 39 340 8.0 0.0 0.00 0.00 0.00 99
20260508011828 39 350 8.0 0.0 0.00 0.00 0.00 99
20260508001728 39 330 7.0 0.0 0.00 0.00 0.00 99
20260507231728 39 330 7.0 0.0 0.00 0.00 0.00 99
20260507222031 39 330 10.0 0.0 0.00 0.00 0.00 99
20260507211729 41 330 10.0 0.0 0.00 0.00 0.00 99
20260507201729 41 330 9.0 0.0 0.00 0.00 0.00 99
20260507191830 41 340 12.0 0.0 0.00 0.00 0.00 99
20260507181728 43 330 10.0 0.0 0.00 0.00 0.00 99
20260507171728 43 350 7.0 0.0 0.00 0.00 0.00 99
20260507162031 43 330 12.0 0.0 0.00 0.00 0.00 99
20260507151728 45 340 10.0 0.0 0.00 0.00 0.00 99
20260507141729 45 330 12.0 0.0 0.00 0.00 0.00 99
20260507131829 46 20 6.0 0.0 0.00 0.00 0.00 99
20260507121729 46 10 6.0 0.0 0.00 0.00 0.00 99
20260507111729 46 340 6.0 0.0 0.00 0.00 0.00 99